EHI
0 0 0 0 0 0 0 0 0 0 0 0 0 0 0 0 0 0 0 0 0 0 0 0 0 0 0 0 0 0 0 0 0 0 0 0 0 0 0 0 0 0 0
0 0 0 0 0 0 0 0 0 0 0 0 0 0 0 0 0 0 0 0 0 0 0 0 0 0 0 0 0 0 0 0 0 0 0 0 0 0 0 0 0 0 0
0 0 0 0 0 0 0 0 0 0 0 0 0 0 0 0 0 0 0 0 0 0 0 0 0 0 0 0 0 0 0 0 0 0 0 0 0 0 0 0 0 0 0
0 0 0 0 0 0 0 0 0 0 0 0 0 0 0 0 0 0 0 0 0 0 0 0 0 0 0 0 0 0 0 0 0 0 0 0 0 0 0 0 0 0 0
0 0 0 0 0 0 0 0 0 0 0 0 0 0 0 0 0 0 0 0 0 0 0 0 0 0 0 0 0 0 0 0 0 0 0 0 0 0 0 0 0 0 0
0 0 0 0 0 0 0 0 0 0 0 0 0 0 0 0 0 0 0 0 0 0 0 0 0 0 0 0 0 0 0 0 0 0 0 0 0 0 0 0 0 0 0
0 0 0 0 0 0 0 0 0 0 0 0 0 0 0 0 0 0 0 0 0 0 0 0 0 0 0 0 0 0 0 0 0 0 0 0 0 0 0 0 0 0 0
0 0 0 0 0 0 0 0 0 0 0 0 0 0 0 0 0 0 0 0 0 0 0 0 0 0 0 0 0 0 0 0 0 0 0 0 0 0 0 0 0 0 0
0 0 0 0 0 0 0 0 0 0 0 0 0 0 0 0 0 0 0 0 0 0 0 0 0 0 0 0 0 0 0 0 0 0 0 0 0 0 0 0 0 0 0
0 0 0 0 0 0 0 0 0 0 0 0 0 0 0 0 0 0 0 0 0 0 0 0 0 0 0 0 0 0 0 0 0 0 0 0 0 0 0 0 0 0 0
0 0 0 0 0 0 0 0 0 0 0 0 0 0 0 0 0 0 0 0 0 0 0 0 0 0 0 0 0 0 0 0 0 0 0 0 0 0 0 0 0 0 0
0 0 0 0 0 0 0 0 0 0 0 0 0 0 0 0 0 0 0 0 0 0 0 0 0 0 0 0 0 0 0 0 0 0 0 0 0 0 0 0 0 0 0
0 0 0 0 0 0 0 0 0 0 0 0 0 0 0 0 0 0 0 0 0 0 0 0 0 0 0 0 0 0 0 0 0 0 0 0 0 0 0 0 0 0 0
0 0 0 0 0 0 0 0 0 0 0 0 0 0 0 0 0 0 0 0 0 0 0 0 0 0 0 0 0 0 0 0 0 0 0 0 0 0 0 0 0 0 0
0 0 0 0 0 0 0 0 0 0 0 0 0 0 0 0 0 0 0 0 0 0 0 0 0 0 0 0 0 0 0 0 0 0 0 0 0 0 0 0 0 0 0
0 0 0 0 0 0 0 0 0 0 0 0 0 0 0 0 0 0 0 0 0 0 0 0 0 0 0 0 0 0 0 0 0 0 0 0 0 0 0 0 0 0 0
0 0 0 0 0 0 0 0 0 0 0 0 0 0 0 0 0 0 0 0 0 0 0 0 0 0 0 0 0 0 0 0 0 0 0 0 0 0 0 0 0 0 0
0 0 0 0 0 0 0 0 0 0 0 0 0 0 0 0 0 0 0 0 0 0 0 0 0 0 0 0 0 0 0 0 0 0 0 0 0 0 0 0 0 0 0
0 0 0 0 0 0 0 0 0 0 0 0 0 0 0 0 0 0 0 0 0 0 0 0 0 0 0 0 0 0 0 0 0 0 0 0 0 0 0 0 0 0 0
0 0 0 0 0 0 0 0 0 0 0 0 0 0 0 0 0 0 0 0 0 0 0 0 0 0 0 0 0 0 0 0 0 0 0 0 0 0 0 0 0 0 0
0 0 0 0 0 0 0 0 0 0 0 0 0 0 0 0 0 0 0 0 0 0 0 0 0 0 0 0 0 0 0 0 0 0 0 0 0 0 0 0 0 0 0
0 0 0 0 0 0 0 0 0 0 0 0 0 0 0 0 0 0 0 0 0 0 0 0 0 0 0 0 0 0 0 0 0 0 0 0 0 0 0 0 0 0 0
0 0 0 0 0 0 0 0 0 0 0 0 0 0 0 0 0 0 0 0 0 0 0 0 0 0 0 0 0 0 0 0 0 0 0 0 0 0 0 0 0 0 0
0 0 0 0 0 0 0 0 0 0 0 0 0 0 0 0 0 0 0 0 0 0 0 0 0 0 0 0 0 0 0 0 0 0 0 0 0 0 0 0 0 0 0
0 0 0 0 0 0 0 0 0 0 0 0 0 0 0 0 0 0 0 0 0 0 0 0 0 0 0 0 0 0 0 0 0 0 0 0 0 0 0 0 0 0 0
0 0 0 0 0 0 0 0 0 0 0 0 0 0 0 0 0 0 0 0 0 0 0 0 0 0 0 0 0 0 0 0 0 0 0 0 0 0 0 0 0 0 0
Wind_Speed
2 2 2 2 2 2 2 1 1 1 1 1 0 1 1 1 1 1 2 2 2 1 1 1 2 2 3 3 3 3 4 4 5 5 6 6 6 7 7 7 8 8 9
2 2 2 2 2 2 2 1 1 1 1 1 0 0 0 0 1 1 2 2 1 2 2 2 3 3 3 4 4 4 4 5 5 6 6 7 7 7 8 9 9 9 10
2 2 2 2 2 1 2 1 1 0 0 0 0 1 0 0 0 1 1 2 2 2 2 3 4 4 4 5 5 5 5 5 6 6 6 7 7 8 9 9 9 10 10
3 2 2 2 2 2 1 1 1 1 0 0 0 1 1 0 1 1 1 1 1 1 2 3 4 5 5 5 5 5 5 6 7 7 7 7 8 8 9 10 10 10 11
3 2 2 2 2 2 2 1 1 1 1 0 1 1 1 1 1 1 1 1 1 1 1 2 3 4 5 6 6 6 6 6 7 7 8 8 9 9 10 11 11 11 12
3 3 2 3 3 2 2 2 1 1 1 0 1 1 2 2 1 1 1 1 1 1 1 1 2 3 5 7 7 7 7 7 7 7 8 9 9 10 11 11 12 12 12
3 3 2 3 3 3 3 2 2 1 1 1 0 1 2 2 2 1 1 1 1 1 2 2 1 1 2 5 7 8 8 8 8 8 8 9 10 10 11 11 12 12 12
2 2 3 3 3 3 3 3 3 2 1 1 1 0 1 2 2 2 1 1 2 1 2 2 1 1 1 1 4 7 8 9 9 9 9 10 10 11 12 12 12 12 13
3 3 2 2 3 3 3 3 3 3 2 1 1 1 1 2 1 1 2 2 1 2 2 1 2 2 2 1 2 4 7 9 10 10 10 10 11 11 12 12 12 13 13
2 3 3 2 3 3 3 3 3 2 2 2 1 2 2 1 1 2 2 2 2 2 2 2 2 2 2 2 2 4 6 7 9 10 10 11 11 12 12 12 13 13 13
2 3 3 3 3 3 3 3 2 2 2 2 2 1 2 2 2 2 3 2 2 2 2 2 2 2 2 2 2 4 6 8 9 10 10 11 12 12 13 13 12 13 13
1 2 3 3 3 3 4 3 3 3 3 2 2 1 1 2 2 2 3 3 3 3 3 2 2 2 2 2 4 6 7 8 8 9 10 11 12 12 12 12 12 13 13
1 1 2 2 3 3 4 3 3 3 3 3 3 2 2 2 1 2 2 3 3 3 3 2 3 3 3 2 3 6 6 8 8 9 10 11 11 11 11 12 13 13 14
2 2 2 2 3 3 3 3 3 3 3 3 3 3 2 2 2 2 2 2 3 3 3 3 2 2 2 2 4 6 4 8 9 10 10 9 10 11 11 12 12 13 13
1 2 2 3 3 3 3 3 3 3 3 3 3 3 2 2 2 2 2 2 3 4 5 3 2 2 2 2 4 3 3 8 9 9 9 9 9 10 11 12 11 12 12
2 2 2 3 3 3 4 3 3 3 3 3 2 3 3 2 2 2 3 3 3 4 5 3 2 3 3 4 5 3 4 8 9 9 9 9 9 10 11 11 11 12 12
2 2 2 2 3 3 3 3 3 3 3 3 3 3 3 3 3 2 2 2 3 3 5 5 2 3 4 4 4 3 3 4 4 9 10 9 9 10 11 11 11 12 12
2 2 1 2 2 3 3 3 4 4 4 4 4 3 4 3 3 3 2 3 3 3 4 6 4 3 4 4 4 4 4 4 4 8 10 10 10 10 11 11 11 11 11
2 1 1 1 2 2 2 3 3 3 3 3 3 4 3 3 3 3 3 3 3 3 3 4 5 3 3 3 3 4 5 4 5 6 8 9 10 10 10 11 11 10 10
1 1 1 1 2 2 2 2 3 3 3 3 3 3 4 4 4 3 4 4 3 3 3 3 4 3 3 3 2 3 4 3 4 4 5 7 9 10 10 10 10 9 9
1 0 0 1 1 1 2 2 2 2 2 2 2 2 3 4 5 4 4 3 3 3 3 3 4 4 3 3 3 3 4 4 4 3 3 4 4 4 5 7 8 8 8
1 1 1 1 1 2 3 3 2 1 1 2 2 2 2 3 3 5 6 5 5 4 4 4 4 4 5 4 3 3 3 4 4 2 2 4 3 4 4 3 6 7 8
2 2 1 1 1 1 3 3 3 2 1 1 1 2 2 2 3 2 3 4 4 5 6 5 5 5 5 4 4 5 4 4 5 3 2 4 3 4 4 5 7 7 7
2 2 2 2 2 2 4 3 3 1 1 1 1 2 2 2 3 3 2 3 3 3 4 3 4 4 4 4 4 4 4 4 4 2 2 3 3 3 4 4 6 7 7
2 2 2 2 2 3 4 5 4 1 1 1 2 2 2 2 4 4 3 2 3 3 3 5 5 5 6 6 4 2 2 3 3 2 1 2 3 3 3 3 4 6 7
1 1 2 2 2 2 4 5 5 1 1 2 2 2 3 3 5 5 3 2 3 3 3 4 4 4 4 4 5 3 2 3 3 3 1 1 2 2 3 3 2 3 4
Wind_Direction
132 134 143 141 137 129 128 137 145 139 144 153 183 171 165 160 122 104 108 114 128 191 227 247 276 294 302 309 307 308 313 313 308 310 314 315 315 317 320 319 318 316 316
137 143 134 142 139 139 143 155 157 149 161 140 230 261 236 187 127 123 135 146 156 198 224 246 266 281 290 293 297 297 298 301 303 302 305 311 313 313 312 312 313 315 316
139 152 138 137 139 136 140 146 119 94 112 92 309 296 286 274 228 181 156 164 181 198 236 255 266 278 286 289 293 292 291 293 297 297 302 305 307 309 308 310 311 311 312
140 147 153 147 146 133 128 132 121 125 138 44 318 299 297 260 241 243 210 178 169 183 230 260 279 280 284 287 290 294 292 291 291 293 297 297 300 303 305 305 306 307 306
150 141 155 150 146 139 136 134 114 141 135 19 315 293 292 273 252 245 225 190 186 187 201 243 272 280 279 283 285 289 291 288 289 290 294 297 297 299 300 301 302 302 302
159 147 157 156 153 145 149 149 151 120 135 158 296 298 277 260 251 254 243 233 208 207 220 244 252 272 278 280 285 288 288 289 293 294 295 296 297 295 296 298 299 299 299
165 155 163 166 161 161 164 156 147 144 158 144 16 304 288 258 244 250 239 243 233 227 227 228 231 249 276 282 285 286 286 289 291 292 295 296 298 298 298 300 300 302 302
157 163 168 178 172 164 164 162 154 164 189 174 164 289 302 302 287 260 254 245 248 254 248 243 232 249 269 265 289 289 287 289 290 291 294 296 297 297 296 298 298 298 300
173 167 171 184 177 172 178 179 174 177 186 222 194 180 196 241 299 270 242 238 248 258 259 257 256 257 253 250 270 290 295 291 291 292 296 300 299 299 299 299 299 298 299
174 176 175 187 188 180 183 191 185 195 179 201 237 239 224 197 225 292 292 268 262 257 255 262 255 255 257 260 277 293 294 299 298 297 297 299 301 300 300 301 301 302 302
180 171 178 179 192 190 193 196 196 203 202 205 212 236 250 257 229 237 277 289 291 269 256 252 245 244 246 246 256 274 287 291 291 299 305 302 301 302 301 301 303 304 305
198 189 183 187 197 195 199 202 198 207 212 218 227 226 223 228 233 226 254 274 278 275 272 258 249 248 246 239 258 273 280 286 290 296 302 304 302 301 305 306 305 304 303
215 215 199 204 209 209 205 198 195 204 203 210 223 233 241 248 241 238 247 265 276 276 263 259 247 243 249 240 254 268 276 284 290 291 297 305 306 303 304 306 306 305 305
216 214 226 230 229 215 213 203 204 210 205 209 226 227 234 246 244 237 231 247 276 276 263 258 262 247 258 253 261 267 273 285 289 292 294 301 307 306 302 304 306 306 306
224 211 230 237 236 224 215 208 211 215 214 213 216 219 231 241 237 244 241 229 235 268 272 257 260 269 274 264 269 261 260 278 287 291 295 298 302 304 304 302 304 306 307
243 231 233 236 235 233 219 210 214 215 220 227 219 216 230 238 235 234 234 240 238 245 267 265 267 287 290 284 283 276 269 286 284 288 291 293 295 299 303 303 302 303 304
256 241 236 249 245 240 219 209 213 211 219 230 233 231 237 235 235 237 237 241 248 243 262 278 278 292 293 289 290 280 278 273 275 283 285 288 292 296 300 303 302 301 303
264 253 236 255 249 248 228 212 218 219 219 225 228 232 241 247 246 247 245 247 252 249 253 273 284 281 279 278 277 280 284 281 272 282 285 286 290 295 298 301 301 301 302
275 257 227 257 254 248 244 229 220 218 224 228 227 232 238 240 248 250 254 252 254 261 259 264 276 279 279 281 287 287 280 276 281 285 285 284 288 293 295 297 299 299 300
293 251 220 257 261 260 252 242 234 219 219 228 232 237 239 235 241 243 253 251 255 265 266 265 274 282 285 285 290 291 295 290 289 292 296 295 291 293 296 298 297 295 298
327 323 240 264 267 265 252 244 236 233 220 234 246 248 253 255 261 261 262 250 243 249 255 260 267 277 282 291 285 284 288 294 287 280 293 297 296 292 293 296 297 299 302
0 42 19 325 299 299 301 306 314 244 229 229 245 259 265 261 269 276 281 281 266 253 250 250 257 264 274 278 281 283 289 296 291 294 303 294 293 289 289 282 295 300 302
24 32 16 13 357 341 328 337 333 321 267 253 261 273 282 278 284 271 283 291 292 286 265 249 249 260 267 271 274 277 279 282 280 286 301 287 287 286 294 294 299 300 298
26 22 20 21 17 352 347 348 347 354 357 330 296 283 282 289 285 284 282 284 284 288 283 274 253 261 268 268 260 262 268 280 277 279 272 280 290 285 298 295 297 305 310
17 8 8 21 22 1 353 350 350 357 4 333 313 307 296 297 300 299 286 282 293 301 301 282 272 275 285 291 290 288 288 285 283 282 280 278 295 301 296 296 311 325 327
359 356 12 22 17 3 353 350 346 354 357 335 334 333 321 323 322 317 309 299 298 300 306 308 302 294 293 297 302 285 273 274 280 287 303 305 297 321 313 297 309 326 328